Regional Weather Roundup
Issued by NWS

Home | Current Version | Previous Version | Text Only | Print | Product List | Glossary On
Versions: 1 2 3 4 5 6 7 8 9 10 11 12 13 14 15 16 17 18 19 20 21 22 23 24 25 26 27 28 29 30 31 32 33 34 35 36 37 38 39 40 41 42 43 44 45 46 47 48 49 50
000
ASUS42 KFFC 291103
RWRGA
WEATHER ROUNDUP FOR GEORGIA
NATIONAL WEATHER SERVICE PEACHTREE CITY GA
700 AM EDT TUE JUL 29 2014

NOTE: "FAIR" INDICATES FEW OR NO CLOUDS BELOW 12,000 FEET WITH NO
SIGNIFICANT WEATHER AND/OR OBSTRUCTIONS TO VISIBILITY.

* = USE WITH CAUTION. THE STATIONS MARKED WITH AN ASTERISK MAY NOT
REPORT WEATHER SUCH AS PRECIPITATION, FOG, OR THUNDER AND ARE NOT
QUALITY CONTROLLED BY NWS.

THE REMARK "TC" DENOTES TEMPERATURE READING IN DEGREES CELSIUS.

GAZ001>058-291200-
NORTH GEORGIA

CITY           SKY/WX    TMP DP  RH WIND       PRES   REMARKS
ATLANTA        CLEAR     67  61  81 NW8       29.99R
ATHENS         CLEAR     65  60  84 NW3       29.97R
CHAMBLEE       CLEAR     65  59  81 N6        29.99R
PEACHTREE CITY CLEAR     66  61  84 W3        30.00R
ROME           CLEAR     63  60  90 CALM      30.00R
WEST ATLANTA   CLEAR     66  60  81 CALM      29.99R
GAINESVILLE    CLEAR     66  58  75 MISG      30.01R
CARTERSVILLE   CLEAR     59  57  93 CALM      30.00R


CITY           SKY/WX    TMP DP  RH WIND       PRES   REMARKS
DALTON*        CLEAR     61  61 100 CALM      30.00S
LAWRENCEVILLE* CLEAR     64  54  68 CALM      29.98
MARIETTA       CLEAR     66  62  86 NW6       29.99R
KENNESAW*      CLEAR     64  57  77 N7        30.00
$$

GAZ059>098-102>109-291200-
CENTRAL GEORGIA

CITY           SKY/WX    TMP DP  RH WIND       PRES   REMARKS
AUGUSTA-BUSH   PTCLDY    65  61  87 CALM      29.93R
AUGUSTA-DANIEL PTCLDY    71  60  68 N6        29.95R
COLUMBUS       CLEAR     69  62  78 N3        29.96S
MACON          CLEAR     64  63  96 W3        29.95R
ROBINS AFB     CLEAR     66  64  94 E1        29.95R


CITY           SKY/WX    TMP DP  RH WIND       PRES   REMARKS
LAGRANGE*      CLEAR     66  64  93 CALM      29.99S
SYLVANIA*      CLEAR     67  67 100 CALM      29.92S
MILLEDGEVILLE* CLEAR     55  55 100 CALM      29.96R
$$

GAZ099>101-110>166-291200-
SOUTH GEORGIA

CITY           SKY/WX    TMP DP  RH WIND       PRES   REMARKS
SAVANNAH       PTCLDY    74  64  71 N5        29.90R
VALDOSTA       CLEAR     74  69  85 CALM      29.92S
ST SIMONS      CLEAR     76  69  79 NW7       29.88S
FT STEWART     MOCLDY    73  67  81 VRB1      29.90R
ALBANY         CLEAR     68  66  93 N3        29.96R
HUNTER AFB     PTCLDY    75  65  72 NW6       29.88R
BRUNSWICK      MOCLDY    77  70  78 CALM      29.90S


CITY           SKY/WX    TMP DP  RH WIND       PRES   REMARKS
BAINBRIDGE*    PTCLDY    73  70  88 CALM      29.95R
MOULTRIE*      PTCLDY    72  70  94 CALM      29.95R
VIDALIA*         N/A     70  63  78 N5        29.93S
WAYCROSS*      CLEAR     75  73  94 NW3       29.91S
DOUGLAS*       PTCLDY    73  68  83 N3        29.94S
$$



USA.gov is the U.S. government's official web portal to all federal, state and local government web resources and services.